"Pseudo-MPEC" for ST26E34

Created 2026 May 14 16:35:11 UT using Find_Orb

Click here for an explanation of pseudo-MPECs

 
 Astrometry: 
     ST26E34* C2026 05 10.45421015 06 42.309+05 58 07.69   ~5AGo 19.33GVNEOCPU68
     ST26E34  C2026 05 10.45755115 06 36.829+06 02 17.51   ~5AGo 19.33GVNEOCPU68

Station data:
(U68) JPL SynTrack Robotic Telescope, Auberry  (N37.070387 W119.412990)
   US/California.  Observers N. Saini, C. Zhai, R. Trahan, M. Zhan, M. Shao.
   0.28-m f/2.2 Schmidt + CCD.

Orbital elements:  ST26E34
   Perihelion 2026 Jul 16.909080 +/- 64.4 TT = 21:49:04.5 (JD 2461238.409080)
Epoch 2026 May 10.0 TT = JDT 2461170.5   Earth MOID: 0.0233      AutoNEOCP
M 283.538280206 +/- 70              (J2000 ecliptic)
n   1.125942502 +/- 0.571           Peri.  134.222844 +/- 90
a   0.915078967 +/- 0.309           Node   228.126062 +/- 55
e   0.51760125 +/- 0.257            Incl.   27.118401 +/- 26
P   0.875/319.726d         H 26.26  G  0.15   U 12.4  SR
q 0.441432944 +/- 0.198    Q 1.388724990 +/- 15.5
From 2 observations 2026 May 10 (4.8 min); mean residual 0".00
Residuals in arcseconds: 
260510 U68  .00   .00     260510 U68  .00   .00     

Ephemerides (geocentric):
Date (UTC) HH   RA             Dec           delta  r     elong  mag " sig PA
---- --------  ------------   ------------  ------ ------ -----  --- --------
2026 05 14 17  10 01 38.998   +72 26 25.03  .04472 1.0000  75.0 23.3  22d 171
2026 05 14 18  09 57 16.801   +72 30 09.42  .04512 0.9997  74.6 23.3  22d 172
2026 05 14 19  09 52 57.433   +72 33 28.85  .04551 0.9993  74.3 23.3  22d 172
2026 05 14 20  09 48 41.031   +72 36 24.29  .04591 0.9990  73.9 23.4  22d 172
2026 05 14 21  09 44 27.718   +72 38 56.70  .04630 0.9986  73.6 23.4  22d 172
2026 05 14 22  09 40 17.606   +72 41 07.02  .04670 0.9983  73.3 23.4  22d 172
2026 05 14 23  09 36 10.796   +72 42 56.16  .04710 0.9979  72.9 23.5  22d 172
2026 05 15 00  09 32 07.378   +72 44 25.02  .04750 0.9976  72.6 23.5  22d 172
2026 05 15 01  09 28 07.431   +72 45 34.50  .04790 0.9972  72.3 23.5  23d 172
2026 05 15 02  09 24 11.022   +72 46 25.45  .04830 0.9969  72.0 23.6  23d 172
2026 05 15 03  09 20 18.211   +72 46 58.71  .04871 0.9965  71.7 23.6  23d 172
2026 05 15 04  09 16 29.044   +72 47 15.11  .04911 0.9962  71.4 23.6  23d 172
2026 05 15 05  09 12 43.560   +72 47 15.43  .04952 0.9958  71.1 23.7  23d 172
2026 05 15 06  09 09 01.789   +72 47 00.45  .04993 0.9955  70.8 23.7  23d 172
2026 05 15 07  09 05 23.751   +72 46 30.91  .05034 0.9951  70.5 23.7  23d 172
2026 05 15 08  09 01 49.457   +72 45 47.55  .05075 0.9948  70.2 23.8  23d 172
2026 05 15 09  08 58 18.914   +72 44 51.06  .05116 0.9944  69.9 23.8  23d 172
2026 05 15 10  08 54 52.119   +72 43 42.12  .05157 0.9941  69.6 23.8  23d 172
2026 05 15 11  08 51 29.061   +72 42 21.38  .05198 0.9937  69.4 23.9  23d 172
2026 05 15 12  08 48 09.727   +72 40 49.48  .05240 0.9934  69.1 23.9  23d 172
2026 05 15 13  08 44 54.095   +72 39 07.01  .05281 0.9930  68.8 23.9  23d 171
2026 05 15 14  08 41 42.138   +72 37 14.56  .05323 0.9927  68.6 24.0  23d 171
2026 05 15 15  08 38 33.827   +72 35 12.69  .05365 0.9923  68.3 24.0  23d 171
2026 05 15 16  08 35 29.125   +72 33 01.94  .05406 0.9920  68.1 24.0  23d 171
2026 05 15 17  08 32 27.994   +72 30 42.82  .05448 0.9916  67.8 24.1  23d 171
2026 05 15 18  08 29 30.392   +72 28 15.82  .05490 0.9913  67.6 24.1  23d 171
2026 05 15 19  08 26 36.272   +72 25 41.43  .05532 0.9909  67.3 24.1  23d 171
2026 05 15 20  08 23 45.586   +72 23 00.08  .05574 0.9906  67.1 24.1  23d 170
2026 05 15 21  08 20 58.285   +72 20 12.22  .05617 0.9902  66.8 24.2  23d 170
2026 05 15 22  08 18 14.315   +72 17 18.26  .05659 .98985  66.6 24.2  23d 170
2026 05 15 23  08 15 33.622   +72 14 18.59  .05701 .98949  66.4 24.2  23d 170
2026 05 16 00  08 12 56.151   +72 11 13.59  .05744 .98914  66.1 24.3  23d 170
2026 05 16 01  08 10 21.845   +72 08 03.61  .05786 .98878  65.9 24.3  23d 169
2026 05 16 02  08 07 50.646   +72 04 49.00  .05829 .98843  65.7 24.3  23d 169
2026 05 16 03  08 05 22.495   +72 01 30.09  .05871 .98807  65.5 24.3  23d 169
2026 05 16 04  08 02 57.335   +71 58 07.18  .05914 .98772  65.3 24.4  23d 169
2026 05 16 05  08 00 35.106   +71 54 40.57  .05957 .98736  65.0 24.4  23d 168
2026 05 16 06  07 58 15.748   +71 51 10.54  .05999 .98701  64.8 24.4  23d 168
2026 05 16 07  07 55 59.203   +71 47 37.37  .06042 .98665  64.6 24.4  23d 168
2026 05 16 08  07 53 45.411   +71 44 01.29  .06085 .98630  64.4 24.5  23d 168
2026 05 16 09  07 51 34.313   +71 40 22.55  .06128 .98594  64.2 24.5  23d 167
2026 05 16 10  07 49 25.852   +71 36 41.38  .06171 .98558  64.0 24.5  23d 167
2026 05 16 11  07 47 19.970   +71 32 58.00  .06214 .98523  63.8 24.5  23d 167
2026 05 16 12  07 45 16.609   +71 29 12.62  .06258 .98487  63.6 24.6  23d 166
2026 05 16 13  07 43 15.712   +71 25 25.42  .06301 .98452  63.4 24.6  23d 166
2026 05 16 14  07 41 17.225   +71 21 36.59  .06344 .98416  63.2 24.6  23d 165
2026 05 16 15  07 39 21.091   +71 17 46.32  .06388 .98380  63.0 24.7  23d 165
2026 05 16 16  07 37 27.257   +71 13 54.75  .06431 .98344  62.9 24.7  23d 165